Regional Weather Roundup
Issued by NWS

Home | Current Version | Previous Version | Text Only | Print | Product List | Glossary On
Versions: 1 2 3 4 5 6 7 8 9 10 11 12 13 14 15 16 17 18 19 20 21 22 23 24 25 26 27 28 29 30 31 32 33 34 35 36 37 38 39 40 41 42 43 44 45 46 47 48 49 50
000
ASUS45 KBOU 072207
RWRCO

WEATHER ROUNDUP FOR COLORADO
NATIONAL WEATHER SERVICE DENVER/BOULDER CO
300 PM MST SUN FEB 07 2016

NOTE: "FAIR" INDICATES FEW OR NO CLOUDS BELOW 12000 FEET WITH NO
SIGNIFICANT WEATHER AND/OR OBSTRUCTIONS TO VISIBILITY.

COZ001>005-013-030-031-072300-
...NORTHWEST COLORADO...

CITY           SKY/WX    TMP DP  RH WIND       PRES   REMARKS
CRAIG          CLOUDY    22  15  75 S3        30.46F
HAYDEN         CLOUDY    25  10  54 SW5       30.44F WCI  19
MEEKER         CLOUDY    33  19  56 CALM      30.45F
MOUNT WERNER   NOT AVBL
STEAMBOAT SPGS CLOUDY    32  18  55 SW13      30.42S WCI  23
WALDEN         CLOUDY    30  14  51 SW9       30.36R WCI  22
$$

COZ006>008-011-072300-
...WEST CENTRAL VALLEYS...

CITY           SKY/WX    TMP DP  RH WIND       PRES   REMARKS
GRAND JUNCTION SUNNY     32  19  58 CALM      30.50S
MONTROSE       SUNNY     36  16  44 CALM      30.49S
EAGLE          SUNNY     39  18  41 SW7       30.43S
RIFLE          SUNNY     32  14  47 CALM      30.48S
DELTA          SUNNY     37  20  49 CALM      30.51S
NUCLA          SUNNY     37  19  48 CALM      30.48R
$$

COZ017>023-064>068-072300-
...SOUTHWEST COLORADO...

CITY           SKY/WX    TMP DP  RH WIND       PRES   REMARKS
DURANGO        SUNNY     33  19  56 NE6       30.35F WCI  28
CORTEZ         SUNNY     43  24  47 W15       30.35F
PAGOSA SPRINGS SUNNY     39  17  42 CALM      30.35R
TELLURIDE      CLOUDY    38  12  34 W10       30.44R
WOLF CREEK PAS CLOUDY    32   5  32 N5        30.45R WCI  27
$$

COZ009-010-012-014-032>034-037-058>063-072300-
...CENTRAL COLORADO...

CITY           SKY/WX    TMP DP  RH WIND       PRES   REMARKS
ASPEN          SUNNY     37  17  44 N10       30.42S
BUENA VISTA    CLOUDY    40  12  31 NW17G25   30.28S
COPPER MTN     CLOUDY    23  10  58 W22G33    30.36S WCI   8
BERTHOUD PASS  LGT SNOW  10   0  61 NW45      30.20F VSB 1   WCI -15
COTTONWOOD PAS CLOUDY    36   1  23 W16G41    30.26R
GUNNISON       CLOUDY    10   1  67 E6        30.50S WCI   1
KREMMLING      CLOUDY    34  12  40 NW6       30.41S WCI  29
LEADVILLE      CLOUDY    26  11  52 W26G39    30.36R WCI  10
MONARCH PASS   CLOUDY    19  12  73 W44G51    30.45F WCI  -2
SALIDA         NOT AVBL
SUNLIGHT       SUNNY     28  19  69 CALM        N/A
WILKERSON PASS CLOUDY    27   9  46 NW14G30   30.33R WCI  15
$$

COZ069>075-072300-
...SAN LUIS VALLEY/SANGRE DE CRISTO MOUNTAINS...

CITY           SKY/WX    TMP DP  RH WIND       PRES   REMARKS
ALAMOSA        CLOUDY    42  14  32 SW5       30.32R
LA VETA PASS   CLOUDY    36  14  41 SW6       30.32S
SAGUACHE       CLOUDY    41  18  38 N20G30    30.34S
$$

COZ035-036-038>040-072300-
...NORTHERN COLORADO FRONT RANGE...

CITY           SKY/WX    TMP DP  RH WIND       PRES   REMARKS
DENVER INTL AP MOSUNNY   29  21  72 E15       30.27F WCI  18
DMNS CITY PARK   N/A     32  20  61 E8G17     30.26S WCI  25
AURORA         MOSUNNY   30  21  71 E13       30.27F WCI  20
FRONT RANGE AP PTSUNNY   28  21  74 E12G21    30.29F WCI  18
ERIE MUNI ARPT SUNNY     33  23  66 E10       30.27F WCI  24
BOULDER MUN AP SUNNY     34  23  64 E6        30.26F WCI  29
CENTENNIAL     MOSUNNY   31  20  63 SE7       30.25F WCI  24
BROOMFIELD     MOSUNNY   36  23  60 E9        30.25F
FORT COLLINS   SUNNY     30  21  69 S15       30.29R WCI  19
LONGMONT       SUNNY     36  24  60 SE9       30.29F
$$

COZ041-046-047-076>085-087-088-072300-
...PIKES PEAK/PALMER DIVIDE AND SOUTHERN FOOTHILLS...

CITY           SKY/WX    TMP DP  RH WIND       PRES   REMARKS
COLO. SPRINGS  PTSUNNY   32  20  61 E3        30.28R
A. F. ACADEMY  CLOUDY    32  21  64 S10       30.24S WCI  24
SCHRIEVER AFB  FAIR      28  20  73 NW3       30.27F
ELLICOTT       NOT AVBL
FALCON         SUNNY     32  20  62 CALM      30.26S
FORT CARSON    MOSUNNY   31  22  68 SE8       30.27S WCI  24
LIMON          CLOUDY    27  19  72 N12       30.30S WCI  17
MONUMENT HILL  SUNNY     27  19  74 CALM      30.25S
TRINIDAD       CLOUDY    44  23  43 NE13      30.26R
$$

COZ042>045-048>051-090-091-072300-
...NORTHEAST COLORADO...

CITY           SKY/WX    TMP DP  RH WIND       PRES   REMARKS
GREELEY ARPT   SUNNY     34  27  75 S10       30.28R WCI  26
AKRON          CLOUDY    29  18  63 N22G31    30.30R WCI  15
BURLINGTON     PTSUNNY   34  17  50 N25G32    30.28F WCI  21
WRAY           CLOUDY    35  19  50 NW23G32   30.28S WCI  23
STERLING       PTSUNNY   32  21  64 N26G37    30.26S WCI  18
HOLYOKE        SUNNY     34  21  60 NW25G37   30.27S WCI  21
FORT MORGAN    CLOUDY    32  19  59 N13G23    30.32S WCI  22
$$

COZ086-089-092>099-072300-
...SOUTHEAST COLORADO...

CITY           SKY/WX    TMP DP  RH WIND       PRES   REMARKS
PUEBLO         SUNNY     38  23  55 E9        30.31S
LA JUNTA       SUNNY     38  23  55 N15       30.33S
LAMAR          SUNNY     42  19  39 N14       30.31S
SPRINGFIELD      N/A     40  19  43 N22       30.28S
$$



USA.gov is the U.S. government's official web portal to all federal, state and local government web resources and services.